Theta_e
348 352 351 349 347 349 350 349 350 351 349 346 347 346 346 346 344 347 350 360 361 362 358 357 357 356 356 354 352 350 350 354 353 352 351 352 352 351 349 349 347 349 350
352 352 353 352 353 351 347 346 351 349 349 347 347 345 343 345 344 345 346 352 361 360 360 358 356 356 356 355 354 355 351 351 350 350 352 354 352 352 351 351 348 348 351
353 354 347 353 354 354 350 352 355 350 345 344 340 342 346 346 345 344 345 349 356 361 362 361 360 360 357 358 357 356 356 357 355 354 355 353 354 354 354 353 351 350 352
356 352 349 349 350 355 352 352 346 344 342 343 339 337 339 343 344 344 345 347 350 353 359 362 361 361 357 357 356 356 356 357 357 358 356 355 354 355 356 356 355 354 354
358 353 348 348 350 351 347 348 346 346 345 346 339 335 336 340 340 347 344 345 345 347 351 359 360 360 357 357 357 357 357 357 358 357 357 357 357 356 355 355 355 355 355
357 355 351 349 349 354 349 350 346 347 344 335 334 334 334 340 341 336 341 345 344 345 346 349 351 352 359 359 356 359 357 358 357 357 356 356 354 354 355 354 354 354 354
357 356 352 350 352 350 350 348 345 343 340 333 330 328 331 333 338 341 338 336 341 342 343 344 345 345 350 356 357 357 357 356 357 356 356 354 352 351 351 351 351 351 353
359 357 354 352 353 350 351 348 346 342 342 335 329 330 326 327 334 335 337 338 338 342 342 344 345 344 344 346 347 355 355 356 356 355 355 353 352 351 350 348 348 348 349
358 357 356 354 352 351 348 347 347 343 338 334 334 331 325 319 327 332 334 334 336 335 338 343 345 348 344 347 351 352 356 355 357 355 352 348 346 345 344 343 343 343 343
358 359 357 355 352 353 350 349 351 346 341 337 331 331 336 336 322 321 331 330 335 333 334 338 343 346 346 345 350 352 355 355 355 350 342 339 342 342 340 341 341 340 340
356 362 358 355 354 352 351 350 350 349 348 339 329 329 330 331 335 328 323 329 333 334 335 337 339 336 338 339 343 349 352 347 345 345 344 342 341 340 339 338 338 340 340
356 357 360 357 357 355 352 352 351 349 345 348 341 336 327 325 327 325 326 328 330 333 334 337 337 335 336 331 340 347 346 344 344 343 344 345 345 343 341 341 340 340 340
354 355 357 357 356 355 355 354 353 351 349 346 346 337 334 329 333 328 329 329 330 334 334 335 339 337 337 333 332 342 345 342 341 340 339 340 342 343 344 342 341 341 341
352 355 357 359 357 356 356 356 353 355 352 349 350 345 337 339 335 331 328 327 324 325 330 330 337 337 337 337 336 343 336 339 338 337 336 336 338 339 341 342 343 344 343
352 355 356 355 359 357 355 353 357 354 354 352 349 349 343 340 338 336 330 331 326 320 324 331 331 337 337 340 337 335 331 337 337 335 335 335 335 337 338 338 338 339 339
352 352 356 356 358 359 358 354 355 357 353 353 351 349 347 344 339 336 334 332 331 327 322 332 333 336 339 340 340 332 330 336 337 335 334 333 334 335 336 336 337 337 337
350 359 359 357 357 357 358 356 352 354 354 353 351 350 347 346 339 339 336 335 333 330 325 327 332 335 332 337 336 333 336 337 332 334 334 333 333 334 335 335 336 335 336
352 352 360 359 358 357 356 356 355 356 354 353 353 348 349 350 343 342 341 332 332 333 328 324 333 337 333 334 333 335 339 341 339 336 333 332 332 331 332 332 332 332 332
353 356 353 359 358 357 357 356 357 356 353 355 355 353 349 350 345 344 340 339 335 334 335 329 330 336 336 336 336 337 338 337 339 340 334 332 332 332 330 329 328 327 327
355 358 358 355 358 357 357 357 358 357 356 355 357 357 354 351 349 346 342 339 336 335 334 334 330 332 335 337 334 333 335 340 339 341 337 334 333 332 331 328 327 326 323
358 356 356 359 359 359 358 356 356 357 357 357 356 357 357 354 348 347 347 344 337 334 334 333 330 330 330 334 335 336 334 336 338 339 335 331 330 332 331 330 331 331 326
356 357 358 356 359 360 346 343 353 356 357 357 357 357 357 351 348 341 340 341 342 336 331 334 332 330 328 331 334 334 336 332 329 339 336 334 333 333 333 332 330 329 326
360 358 357 360 359 360 340 338 342 356 355 357 357 357 357 357 349 353 339 337 337 336 336 334 334 331 330 334 335 334 333 332 330 335 333 329 335 332 334 335 330 328 326
359 359 359 359 360 361 340 334 338 356 356 356 357 359 358 357 355 353 352 346 345 344 340 338 337 336 337 339 339 339 336 334 334 335 336 327 332 331 334 332 328 326 324
359 359 360 360 360 361 334 332 334 353 355 356 356 356 357 358 346 335 352 350 347 346 338 332 335 333 333 334 338 337 334 331 328 330 334 331 330 329 330 325 323 325 321
359 360 359 361 352 360 337 328 333 355 353 353 355 355 338 348 334 328 348 351 347 348 344 333 336 331 332 334 332 335 333 330 330 327 333 330 328 328 314 317 319 321 317
Wind_Speed
3 3 3 5 4 1 2 3 3 4 5 4 4 3 9 7 8 5 3 10 8 10 12 12 11 10 9 9 8 7 5 4 4 3 2 3 3 3 2 3 2 2 2
4 2 4 5 4 4 5 4 5 4 4 3 3 4 10 5 6 7 5 6 9 8 9 11 11 10 9 9 8 8 6 5 4 2 2 3 3 3 1 2 1 2 2
5 4 4 3 3 3 3 3 2 2 3 2 2 6 7 7 5 6 5 5 6 9 9 9 9 10 11 11 10 8 8 8 7 7 5 4 4 5 4 3 3 4 4
6 4 5 4 1 3 1 3 1 1 2 3 1 1 4 7 7 7 6 5 5 5 7 9 9 8 9 9 9 9 9 9 8 6 5 5 4 4 5 6 6 5 6
6 5 4 3 2 2 3 2 1 2 1 3 4 4 3 3 6 8 7 6 7 6 4 9 10 9 10 10 10 9 9 8 7 7 9 8 6 5 4 6 6 7 7
7 6 4 3 4 3 1 1 2 1 1 2 4 3 3 4 4 4 6 5 7 8 6 6 4 4 11 10 7 7 7 7 7 7 7 7 6 5 5 7 6 6 8
7 7 5 5 4 4 5 4 1 2 1 1 3 3 3 2 5 4 4 4 6 7 6 5 4 3 3 8 7 7 6 7 9 7 7 6 5 4 5 4 1 7 8
7 6 6 6 5 3 4 3 2 1 1 1 3 1 1 4 3 2 2 4 6 5 6 6 5 6 5 3 4 5 4 6 8 8 7 6 6 7 6 4 4 3 4
7 7 7 5 4 4 4 3 4 4 2 1 3 4 1 3 1 2 2 2 7 4 4 6 6 5 6 4 5 5 5 7 8 8 7 6 6 5 5 4 4 5 5
7 7 8 7 6 4 5 5 4 3 3 2 1 2 2 4 3 2 3 1 5 6 5 4 5 6 6 5 8 8 8 8 9 10 8 7 5 4 3 4 3 4 4
7 7 8 7 6 4 5 6 4 5 3 3 2 1 0 1 1 4 2 3 2 3 4 5 6 5 6 5 5 7 11 11 10 10 10 10 9 8 5 5 4 4 3
7 7 9 8 7 6 6 5 5 6 5 3 2 2 3 3 2 3 2 2 4 3 4 4 5 5 6 5 10 13 13 12 11 10 9 9 9 8 7 6 4 4 3
6 8 7 8 7 6 6 6 6 6 5 3 3 2 2 3 3 3 3 2 3 2 3 3 6 6 7 6 7 13 15 13 12 12 10 10 10 9 7 6 6 6 6
8 12 10 8 10 9 7 6 4 5 5 4 4 4 2 2 2 2 5 4 2 2 1 4 4 6 6 7 9 17 9 14 13 12 11 11 10 10 9 7 8 7 8
6 10 12 11 9 9 9 7 5 6 6 5 6 5 4 3 2 3 3 4 5 2 3 4 3 6 5 7 10 11 9 14 14 14 13 12 11 11 9 9 10 10 10
6 6 11 12 12 10 11 9 5 6 6 5 5 6 5 3 4 3 3 4 4 5 3 4 5 4 6 6 11 11 11 13 16 15 13 13 12 11 10 11 11 10 9
8 6 9 10 12 12 9 9 7 7 8 7 6 7 8 6 5 5 3 3 4 5 5 4 4 4 5 6 6 5 7 7 7 16 16 15 13 12 11 11 11 10 8
7 9 9 11 12 12 10 9 10 10 11 10 9 9 10 8 8 6 4 7 5 5 5 7 4 4 4 4 6 7 6 6 6 11 15 14 15 14 12 12 9 10 8
13 11 10 13 14 13 12 12 12 11 10 10 12 13 13 12 11 9 6 6 5 5 4 4 5 2 3 3 3 4 5 6 4 9 11 17 16 14 12 12 10 10 8
14 13 12 12 12 15 15 14 13 14 14 12 13 15 15 13 15 14 11 12 8 6 5 4 4 4 3 3 3 5 4 4 6 5 7 8 13 13 11 12 11 11 9
13 16 15 11 11 12 12 15 15 16 15 16 15 13 15 19 21 17 11 13 10 8 5 9 4 4 5 4 8 5 7 7 7 6 5 3 3 4 5 7 10 12 12
17 15 14 16 15 12 16 20 19 15 16 17 16 16 16 18 19 21 22 18 17 15 15 8 9 7 6 8 5 8 10 6 4 3 5 4 6 5 4 5 11 13 10
16 17 17 15 18 18 19 21 22 16 16 17 18 17 15 15 17 17 19 19 20 20 19 13 11 10 10 12 9 8 8 4 4 3 4 3 1 0 3 5 10 11 11
17 16 17 18 17 17 18 19 20 20 17 18 19 19 18 18 17 14 14 16 19 17 16 12 15 14 12 11 9 2 2 3 2 2 3 2 2 0 6 5 7 11 12
15 16 15 17 19 18 16 18 15 16 18 21 18 17 17 18 16 14 14 15 16 18 12 19 17 18 16 11 12 9 5 4 6 4 1 4 3 3 4 3 4 10 12
16 12 15 16 17 18 16 19 17 12 17 14 15 17 17 18 12 15 15 14 17 15 13 8 13 12 15 13 15 11 8 9 7 3 4 5 4 4 3 1 3 4 3
Wind_Direction
244 179 149 95 120 267 206 204 241 241 268 195 242 95 134 148 155 139 146 154 161 163 154 153 155 156 159 145 152 157 150 140 146 152 141 148 163 136 148 126 96 77 66
196 181 143 152 188 183 190 201 195 188 236 277 328 107 144 164 147 153 161 159 169 171 167 166 166 166 166 162 173 171 172 177 189 201 215 177 196 221 232 238 275 248 253
180 99 133 150 165 235 216 252 165 170 233 246 263 101 155 148 156 155 149 170 166 179 184 179 181 183 178 182 184 185 190 189 204 205 206 220 216 228 234 257 275 289 305
130 142 94 116 131 228 150 165 167 4 351 312 231 196 165 159 177 157 175 159 162 176 194 190 190 193 196 192 192 198 199 203 216 214 218 221 242 250 246 252 247 261 254
144 127 134 186 160 283 196 141 176 169 240 295 235 128 193 161 156 168 189 167 163 165 172 199 191 194 203 205 204 206 212 209 209 217 220 219 223 239 250 257 256 260 283
163 141 161 183 184 257 331 247 182 25 146 221 87 102 171 208 200 157 183 164 183 168 163 182 177 191 207 204 200 212 216 202 212 226 236 234 230 233 233 244 252 262 258
177 153 174 179 207 193 202 191 168 105 345 55 62 354 357 119 149 194 162 149 174 162 166 166 165 198 190 200 194 200 215 207 197 202 212 223 213 216 219 209 213 251 250
173 158 159 197 193 167 196 193 149 86 326 143 119 92 56 338 30 230 154 124 132 146 163 181 182 190 170 167 187 184 183 197 189 181 165 151 138 152 167 151 152 92 102
172 165 169 182 199 177 180 187 161 154 201 265 140 144 91 201 65 333 187 132 145 160 182 179 182 175 166 172 158 171 155 135 151 158 159 157 155 133 120 113 88 72 73
177 176 175 181 179 181 190 204 181 185 156 185 357 216 158 153 151 44 344 183 146 162 165 157 158 177 161 160 162 172 154 139 153 161 163 161 156 154 147 121 133 111 97
190 177 174 178 190 175 183 193 198 201 169 155 165 206 103 49 141 123 197 287 328 203 181 164 162 164 164 159 162 172 168 165 169 172 170 176 174 174 184 180 185 182 179
196 188 181 182 184 180 187 194 193 184 173 161 168 184 154 154 199 150 135 200 205 252 188 173 176 179 164 166 174 175 175 176 178 187 186 193 191 190 195 202 214 225 235
189 201 182 187 185 187 192 180 179 190 188 169 181 218 158 194 167 175 120 222 207 205 217 205 196 188 179 176 173 178 182 182 187 192 196 205 211 214 220 232 247 265 278
179 198 198 185 191 187 186 183 181 189 181 187 205 227 224 233 188 188 158 136 16 320 232 208 205 196 186 182 184 180 184 193 194 200 204 211 223 231 234 242 261 271 277
186 194 197 193 182 186 193 189 178 188 173 187 208 216 221 255 267 263 179 145 152 166 248 259 198 208 182 179 182 181 182 197 202 207 209 213 225 238 242 246 255 262 267
222 181 193 192 186 185 194 188 180 177 183 191 195 201 218 240 253 257 225 178 159 158 205 214 232 182 186 179 186 181 192 192 207 212 213 215 221 235 242 247 255 259 264
209 175 171 181 192 195 188 183 181 181 194 191 196 190 214 215 231 235 226 193 194 171 186 274 235 207 170 170 168 186 186 192 208 212 216 220 216 223 237 241 246 248 248
203 192 186 186 190 199 192 182 185 200 201 199 199 196 207 210 225 229 216 232 201 200 179 220 209 189 182 197 173 177 195 199 201 208 214 219 217 221 217 232 231 236 230
212 212 194 192 195 194 191 200 196 200 203 203 206 205 209 199 213 223 213 227 225 216 192 181 220 185 194 154 160 198 196 220 211 214 214 214 206 213 215 226 226 223 216
209 212 213 206 191 195 197 198 200 206 213 215 212 213 214 203 210 211 213 220 220 218 208 187 185 189 158 211 177 187 214 211 228 203 215 202 196 202 212 226 230 228 212
209 213 216 213 202 198 200 201 206 209 210 219 225 219 217 216 215 209 210 223 217 221 218 226 195 176 180 182 198 186 209 216 222 209 196 218 192 180 222 222 240 230 203
212 211 209 214 214 212 204 199 204 210 214 218 225 226 226 218 218 210 210 212 210 214 221 210 223 218 207 207 170 197 208 189 234 222 170 207 162 209 236 201 220 220 183
208 212 215 211 218 219 207 205 204 213 217 221 225 226 228 230 216 221 222 218 218 217 218 214 214 210 208 200 177 193 189 204 197 189 113 238 114 117 270 240 217 199 186
209 211 214 216 219 222 208 207 205 216 223 227 229 226 229 231 229 218 222 224 230 228 224 218 218 220 216 203 187 139 120 94 320 240 94 197 93 240 290 264 200 165 161
212 215 216 218 222 227 205 201 196 219 229 231 234 234 233 236 228 198 216 225 229 234 217 218 223 213 195 160 139 124 165 145 248 224 173 141 184 160 240 229 184 171 174
213 213 221 222 224 230 206 199 196 220 233 236 239 241 230 236 216 193 216 224 234 230 218 206 221 219 186 188 167 174 187 233 240 186 169 154 165 148 230 285 166 173 198